Wind_Speed
11 13 10 9 8 9 6 10 1 9 12 7 4 13 22 10 19 8 11 10 12 12 10 10 9 8 7 6 7 8 8 7 7 5 5 6 6 7 8 9 9 9 8 9 9 9 8 5 2
9 10 10 12 11 12 7 4 8 10 10 10 4 5 19 17 18 15 11 10 13 12 11 11 9 8 7 6 6 7 7 8 7 6 5 5 6 6 8 10 10 9 7 6 8 8 8 7 5
11 9 13 9 14 6 9 9 6 11 5 1 7 11 12 12 14 12 11 12 12 13 13 11 9 8 6 5 5 5 5 6 6 6 5 5 6 7 8 9 10 9 7 6 6 7 7 7 7
7 13 10 11 16 10 7 9 2 5 5 1 7 13 13 10 9 11 11 11 11 12 12 12 11 8 6 4 4 4 4 6 7 7 7 6 6 7 8 9 10 9 7 6 6 8 8 9 9
11 14 12 14 10 7 2 5 3 6 7 5 2 9 15 12 13 11 10 10 12 13 12 12 11 9 7 5 4 4 4 6 7 7 7 7 7 7 8 9 10 9 7 6 5 6 8 8 9
11 9 12 13 12 6 3 2 3 8 4 7 5 13 11 8 10 9 9 10 11 12 10 12 11 10 8 6 5 4 4 5 6 6 6 7 7 7 7 8 9 9 8 7 8 8 8 9 11
12 11 18 12 4 3 5 3 4 5 2 7 6 4 12 8 8 8 9 10 10 11 10 10 11 10 9 8 7 6 5 5 6 6 6 7 7 7 7 8 9 9 9 9 10 10 10 10 11
11 9 19 9 8 7 12 3 1 5 10 3 2 2 15 8 7 7 7 7 8 8 8 8 11 10 10 10 9 8 7 7 7 7 7 7 7 8 8 8 9 9 9 10 10 11 11 12 13
8 10 14 16 5 8 10 7 5 1 4 2 3 7 7 7 6 7 6 6 8 6 8 8 9 9 9 9 11 10 9 9 8 8 7 7 5 6 8 7 9 9 10 11 11 12 13 14 15
3 14 20 14 12 12 13 5 10 5 8 7 6 4 4 4 5 6 7 8 9 9 10 10 10 9 9 11 13 10 11 11 10 8 7 6 6 7 6 10 11 11 11 12 12 14 16 19 16
16 17 20 19 14 11 14 14 12 11 13 9 10 8 6 4 6 8 8 7 3 8 8 7 11 11 11 10 10 8 9 9 9 9 8 6 7 7 5 6 7 9 9 12 12 14 13 10 11
15 16 20 20 12 17 13 17 19 15 16 9 5 6 7 9 10 10 11 10 10 6 6 9 7 9 11 11 12 11 12 11 11 10 10 9 8 7 9 7 6 9 9 8 9 11 14 13 16
13 18 13 20 12 16 17 21 20 24 24 9 8 9 12 12 12 13 13 13 6 7 8 8 10 11 10 12 12 12 13 11 10 11 13 8 9 9 6 8 8 8 7 11 11 12 12 15 15
11 13 8 15 13 16 15 16 24 25 21 11 14 15 13 12 10 10 10 12 9 8 7 6 6 9 11 11 13 16 13 10 10 10 11 8 7 10 4 3 3 5 9 9 11 13 15 16 18
11 14 14 15 14 13 10 15 23 22 7 12 14 14 14 11 9 10 9 10 10 10 9 9 7 8 8 10 13 13 9 8 11 10 14 11 6 3 3 3 4 5 6 11 14 15 17 19 21
14 15 15 21 15 9 7 15 1 9 8 13 15 14 13 12 10 6 8 9 11 12 9 11 8 10 8 8 9 7 8 10 11 14 8 8 3 2 5 2 4 8 11 12 14 16 19 21 23
15 14 19 10 10 9 12 14 14 6 6 11 12 13 12 12 11 13 11 10 12 13 12 12 12 11 11 12 10 8 11 9 6 2 3 6 7 4 3 3 5 10 9 11 13 15 17 22 23
10 19 14 6 12 7 13 15 14 13 8 13 15 13 12 12 11 6 10 12 12 13 12 13 14 13 13 15 15 11 9 9 8 8 9 8 6 4 2 2 7 10 9 12 14 21 19 20 23
10 10 11 1 5 5 14 15 11 14 17 12 17 10 10 5 4 3 4 6 7 7 9 11 13 16 16 12 13 13 11 11 10 10 10 8 5 3 4 4 7 10 12 17 21 19 20 21 22
7 9 11 3 3 7 15 15 15 16 8 11 7 7 4 5 2 3 3 3 4 5 7 8 12 14 13 13 13 13 14 11 10 8 8 7 4 7 6 12 14 15 17 21 22 21 23 24 24
10 8 10 9 13 17 20 17 19 7 4 5 7 3 3 3 4 5 6 6 6 7 7 8 9 11 12 15 14 18 16 14 9 6 3 6 9 12 14 17 18 20 21 18 22 23 26 27 23
12 9 5 11 11 11 12 13 14 15 11 7 8 8 6 4 5 5 7 8 9 10 10 10 10 10 9 8 9 10 10 10 10 6 7 9 10 13 16 16 17 21 23 25 24 21 25 25 30
12 7 12 13 14 15 15 10 12 6 6 11 6 5 4 5 4 5 6 7 7 8 8 8 8 9 9 11 7 8 7 6 6 6 9 11 11 13 15 15 18 23 25 26 30 30 27 25 27
9 12 15 15 14 13 11 4 4 7 7 6 10 6 4 4 3 2 3 4 3 3 3 3 2 4 4 4 8 11 12 9 8 8 10 9 9 11 12 14 22 28 29 27 30 33 31 28 28
7 11 8 4 8 7 6 6 8 8 11 8 8 6 8 3 4 4 6 5 2 3 2 4 4 4 4 4 5 7 9 12 12 11 8 12 11 13 15 24 28 30 32 33 34 33 33 30 29
8 6 6 7 9 15 17 13 5 7 5 2 5 7 2 6 8 5 5 6 10 7 6 9 11 11 11 9 9 8 10 8 10 10 11 12 15 18 19 25 28 31 33 32 31 28 27 27 28
3 5 9 9 16 13 14 15 8 12 7 9 11 8 13 18 20 23 18 15 15 16 17 19 18 18 18 17 14 13 13 13 13 18 19 16 16 17 20 25 29 30 30 27 27 25 28 28 27
7 9 7 7 8 13 11 17 10 9 9 4 2 3 7 14 17 17 20 22 23 23 22 23 23 23 22 21 19 17 15 14 14 15 16 17 19 19 22 24 25 25 24 24 24 24 24 26 24
4 10 7 3 8 12 13 8 7 11 7 9 7 16 13 13 16 19 24 25 24 26 27 27 29 23 22 22 22 21 20 17 17 17 17 18 19 21 22 23 23 23 22 23 24 26 24 24 26
8 12 11 7 11 12 14 15 19 6 4 19 22 21 22 21 21 23 27 30 31 29 30 30 26 22 35 37 27 27 21 19 19 19 19 19 21 23 23 22 22 22 22 21 23 24 25 23 23
Wind_Direction
331 339 303 273 245 231 204 111 340 117 104 77 32 49 80 344 24 58 117 104 128 142 150 155 153 146 133 126 137 167 178 177 171 158 133 126 136 152 165 161 157 158 161 173 186 194 198 209 223
341 297 289 271 251 232 118 87 78 67 82 104 77 76 66 57 66 94 104 116 137 145 150 161 157 151 138 133 136 161 180 189 187 178 161 152 158 170 176 175 172 172 171 179 195 207 219 225 234
327 286 276 229 242 313 64 68 55 101 118 83 111 38 28 63 55 80 100 127 139 142 149 158 159 157 146 135 134 152 180 198 199 197 188 180 182 187 188 189 188 190 195 202 207 215 224 236 246
302 259 247 248 227 81 351 52 45 162 136 83 72 93 75 57 71 96 111 128 141 142 149 161 163 165 157 145 143 154 182 199 200 203 201 201 201 200 198 197 198 203 211 223 233 236 240 243 246
284 266 261 227 260 53 322 43 343 210 116 128 260 119 93 85 96 103 110 127 138 143 173 168 171 172 170 162 162 163 174 187 196 203 207 210 207 208 204 203 203 208 220 237 248 249 253 262 259
287 262 263 235 201 129 211 1 307 280 123 105 217 128 90 115 110 109 110 125 140 148 159 166 173 177 179 183 183 177 178 184 194 200 209 211 212 209 210 210 212 222 236 251 261 264 263 265 269
262 292 270 309 40 167 112 330 12 359 254 87 19 205 121 128 128 124 122 127 139 150 158 163 179 185 189 195 197 195 191 193 196 205 209 209 209 210 212 215 222 233 249 259 266 267 265 268 267
288 288 279 279 278 236 104 267 347 317 61 25 280 312 150 144 151 146 142 143 146 153 165 171 177 186 200 208 207 207 203 202 205 210 214 215 217 220 222 227 232 246 256 266 269 271 273 276 276
291 272 266 270 252 271 96 268 119 322 277 41 38 43 88 143 168 179 172 176 172 170 180 185 189 189 184 209 215 213 214 214 213 216 218 221 222 241 241 248 249 256 264 270 276 280 285 285 283
212 277 262 322 336 320 330 303 321 300 230 205 174 142 147 169 193 212 209 213 203 196 203 209 196 201 197 200 238 229 219 221 220 222 222 214 190 215 209 245 279 283 278 281 283 290 289 286 285
217 232 270 276 289 294 295 297 284 272 274 276 252 178 180 215 224 244 236 260 236 214 198 210 200 202 209 211 225 200 209 200 210 202 212 190 220 226 227 242 301 326 321 315 299 314 311 312 285
238 235 243 273 266 279 273 289 285 287 275 319 308 301 275 258 257 248 250 248 237 231 210 216 221 215 210 217 217 210 205 199 191 204 206 200 205 223 210 211 222 224 239 259 269 264 258 271 273
229 249 220 260 249 265 277 280 282 276 279 283 268 259 257 256 257 255 253 253 241 204 223 222 220 219 221 212 224 213 206 211 194 209 211 208 217 221 212 226 234 253 260 284 293 297 293 284 279
274 260 236 238 246 247 251 261 269 260 260 263 258 263 260 257 261 250 240 236 219 213 200 209 214 220 214 215 218 210 203 187 191 196 208 193 196 223 211 8 276 306 309 320 318 314 302 294 289
267 253 242 241 246 247 257 259 246 241 236 258 265 262 259 258 248 243 230 215 216 215 215 197 195 211 227 192 208 207 209 204 192 190 193 199 191 188 182 282 292 299 290 304 315 304 299 296 292
243 235 254 223 198 217 226 273 139 149 217 255 262 260 255 253 242 238 232 231 226 225 212 206 222 193 205 206 186 178 201 188 203 193 158 170 156 188 261 278 284 273 307 307 304 303 300 297 293
222 254 234 157 191 248 199 265 121 178 248 264 265 261 253 252 251 252 242 248 237 229 216 204 207 204 198 214 172 181 192 178 221 256 187 176 194 201 171 273 280 302 323 315 312 310 303 300 298
283 213 241 278 163 209 261 259 268 219 194 266 268 272 270 269 270 283 265 257 247 226 216 213 202 198 188 212 173 187 184 192 197 190 191 177 171 181 163 293 300 321 319 311 303 301 309 305 304
305 301 300 32 62 289 272 275 285 283 271 267 264 275 279 291 309 272 264 240 227 204 196 191 192 192 191 192 188 194 195 192 172 172 157 156 158 221 278 315 299 311 309 294 306 308 303 305 304
268 266 263 278 263 266 278 273 277 264 268 272 293 258 243 199 141 63 84 152 162 145 156 169 184 201 188 197 196 201 188 184 183 174 167 177 216 261 301 292 300 301 301 302 309 309 300 299 298
239 283 329 324 321 277 257 274 253 159 242 214 229 221 197 150 122 100 93 103 113 115 121 134 152 169 176 182 172 161 170 179 174 184 187 229 254 279 297 307 309 308 307 302 293 290 290 292 293
291 33 291 289 291 292 343 292 290 163 188 194 176 210 167 134 129 116 106 100 103 105 110 115 123 128 132 133 158 165 185 195 193 188 225 251 298 292 300 304 301 299 303 303 304 298 281 284 289
305 334 297 288 280 286 272 246 262 161 201 168 174 194 187 183 165 147 123 109 107 105 110 113 118 140 150 154 152 170 177 212 214 222 252 279 298 299 296 301 301 304 307 301 301 302 298 289 286
318 278 268 255 255 262 239 316 283 76 55 17 140 175 200 211 160 145 127 139 130 118 116 115 134 196 204 204 209 198 209 212 223 246 255 291 281 288 298 297 300 307 309 308 300 300 296 290 278
252 289 288 256 213 254 100 289 297 32 51 359 336 169 175 208 242 233 229 212 219 252 265 279 283 285 268 262 264 260 253 253 263 275 276 272 291 297 296 294 307 309 308 306 303 299 294 293 288
305 320 298 297 306 316 322 284 264 123 133 48 338 318 35 201 255 259 304 292 291 299 274 284 288 280 276 269 265 263 262 266 266 282 271 279 291 296 290 302 306 306 305 302 299 298 294 286 282
90 280 6 304 268 265 276 276 251 129 128 86 48 27 23 10 14 13 9 353 339 319 297 290 285 279 275 271 266 264 267 270 262 258 274 287 288 291 292 294 304 304 303 300 297 297 293 290 285
277 353 293 235 282 283 292 315 307 48 79 82 36 16 345 338 330 326 317 322 314 310 306 299 284 274 277 277 270 270 269 266 272 276 280 283 286 290 294 297 301 299 298 297 296 295 294 289 285
269 262 217 274 300 297 302 283 74 352 331 348 298 293 322 298 293 302 307 306 304 309 302 299 290 290 285 270 270 269 269 271 274 271 271 279 287 291 294 295 296 297 297 297 295 294 295 293 286
286 288 298 287 285 289 290 285 290 305 311 320 315 325 323 325 321 317 305 299 299 298 298 295 297 295 281 274 275 270 258 269 280 282 279 281 287 287 291 293 296 295 294 295 291 294 295 289 294
Height
1506 1503 1505 1504 1498 1471 1462 1467 1463 1463 1468 1472 1471 1468 1476 1478 1469 1487 1496 1501 1505 1506 1506 1509 1512 1514 1515 1516 1518 1520 1522 1523 1525 1526 1527 1527 1528 1530 1531 1532 1534 1535 1536 1537 1538 1540 1541 1542 1542
1506 1508 1505 1496 1486 1471 1462 1464 1467 1467 1472 1475 1474 1474 1479 1487 1486 1493 1496 1501 1505 1506 1507 1510 1512 1514 1516 1518 1519 1521 1522 1524 1526 1527 1528 1529 1530 1531 1532 1533 1535 1536 1537 1538 1539 1540 1541 1542 1542
1505 1508 1504 1482 1472 1471 1475 1466 1471 1475 1478 1476 1476 1478 1483 1491 1495 1496 1500 1504 1507 1508 1509 1510 1513 1516 1517 1518 1520 1521 1523 1524 1526 1527 1529 1530 1531 1533 1533 1534 1535 1537 1538 1539 1540 1541 1541 1542 1542
1510 1505 1498 1487 1473 1464 1471 1473 1477 1477 1480 1480 1477 1485 1494 1495 1497 1500 1504 1506 1508 1510 1513 1512 1514 1516 1518 1519 1521 1522 1523 1525 1526 1528 1530 1531 1532 1533 1534 1535 1536 1537 1538 1539 1540 1540 1541 1541 1542
1510 1501 1487 1478 1467 1468 1474 1478 1479 1473 1476 1478 1482 1485 1496 1501 1502 1504 1506 1509 1510 1513 1512 1512 1515 1517 1519 1520 1522 1523 1524 1526 1527 1529 1530 1532 1533 1534 1534 1535 1536 1538 1539 1539 1540 1540 1541 1541 1541
1508 1495 1488 1479 1469 1473 1478 1482 1480 1477 1477 1482 1482 1487 1498 1503 1504 1506 1508 1509 1512 1514 1514 1512 1514 1517 1519 1521 1522 1524 1525 1526 1528 1529 1530 1532 1533 1534 1535 1536 1536 1538 1538 1539 1540 1540 1540 1540 1541
1508 1496 1486 1473 1474 1477 1477 1485 1482 1481 1481 1484 1487 1484 1498 1504 1505 1507 1509 1510 1512 1514 1516 1513 1514 1516 1518 1520 1522 1524 1525 1526 1527 1528 1529 1531 1532 1533 1534 1535 1536 1537 1538 1538 1539 1539 1539 1539 1539
1510 1501 1492 1477 1476 1478 1480 1486 1488 1486 1486 1494 1494 1486 1494 1505 1506 1507 1509 1511 1513 1515 1517 1517 1517 1516 1518 1519 1521 1523 1524 1526 1527 1528 1530 1531 1531 1532 1533 1534 1535 1536 1537 1537 1537 1538 1538 1538 1538
1510 1507 1499 1485 1479 1479 1479 1486 1488 1494 1491 1495 1497 1496 1502 1505 1506 1506 1507 1510 1511 1515 1517 1519 1520 1519 1521 1522 1520 1522 1523 1525 1526 1528 1529 1530 1531 1532 1533 1534 1535 1536 1536 1537 1536 1536 1536 1536 1536
1511 1509 1500 1490 1487 1488 1485 1491 1488 1493 1490 1492 1497 1501 1503 1504 1505 1505 1506 1506 1508 1511 1514 1517 1520 1522 1522 1524 1520 1521 1522 1524 1525 1527 1528 1530 1533 1535 1536 1535 1535 1535 1535 1535 1535 1536 1535 1534 1533
1507 1511 1501 1496 1497 1497 1497 1494 1493 1493 1491 1489 1490 1494 1501 1504 1505 1504 1504 1504 1506 1508 1512 1516 1516 1520 1522 1524 1522 1523 1524 1526 1526 1528 1529 1530 1534 1534 1535 1536 1534 1534 1533 1534 1535 1534 1533 1533 1534
1505 1502 1504 1500 1498 1501 1496 1496 1495 1493 1493 1492 1498 1499 1502 1503 1503 1503 1504 1504 1506 1509 1512 1516 1517 1518 1519 1522 1522 1522 1524 1524 1526 1528 1528 1531 1532 1533 1532 1534 1534 1533 1534 1534 1535 1535 1533 1533 1533
1500 1498 1500 1502 1498 1500 1500 1495 1496 1497 1495 1494 1500 1502 1502 1502 1502 1502 1504 1504 1505 1508 1513 1515 1516 1517 1517 1518 1520 1521 1522 1522 1525 1525 1524 1527 1528 1530 1530 1531 1532 1532 1533 1532 1532 1531 1531 1531 1529
1492 1493 1496 1498 1497 1498 1499 1497 1498 1494 1494 1496 1499 1500 1498 1499 1500 1501 1502 1504 1505 1508 1510 1513 1515 1514 1515 1516 1518 1518 1520 1520 1523 1525 1524 1526 1529 1528 1529 1531 1532 1533 1532 1532 1531 1530 1530 1529 1527
1497 1497 1492 1490 1494 1494 1495 1497 1491 1488 1492 1496 1496 1496 1496 1497 1499 1500 1501 1504 1506 1507 1509 1511 1513 1512 1511 1513 1515 1516 1518 1520 1522 1521 1523 1524 1526 1528 1530 1532 1533 1533 1532 1531 1530 1530 1528 1526 1524
1496 1493 1492 1475 1487 1492 1499 1493 1470 1484 1492 1494 1493 1492 1494 1496 1497 1498 1501 1503 1505 1506 1506 1509 1510 1510 1510 1511 1513 1517 1517 1519 1520 1518 1520 1524 1525 1528 1529 1531 1531 1530 1530 1530 1529 1527 1525 1523 1520
1486 1489 1478 1479 1485 1486 1492 1487 1483 1489 1491 1492 1491 1490 1491 1493 1495 1498 1500 1502 1503 1504 1505 1506 1508 1509 1509 1510 1513 1517 1517 1519 1520 1521 1522 1524 1526 1527 1527 1529 1529 1527 1527 1527 1526 1525 1523 1519 1516
1476 1474 1474 1475 1480 1489 1487 1483 1479 1480 1485 1490 1487 1488 1489 1491 1493 1495 1498 1499 1500 1500 1500 1502 1506 1508 1509 1508 1511 1515 1517 1518 1520 1521 1521 1522 1524 1525 1525 1527 1526 1525 1526 1525 1524 1520 1518 1516 1513
1479 1479 1479 1473 1479 1494 1490 1481 1477 1479 1481 1486 1485 1485 1488 1491 1495 1498 1497 1497 1498 1497 1497 1499 1503 1505 1507 1508 1511 1513 1515 1517 1519 1520 1520 1521 1522 1522 1522 1524 1525 1524 1524 1522 1519 1518 1515 1512 1509
1484 1483 1481 1476 1482 1492 1488 1482 1477 1477 1478 1483 1485 1487 1490 1493 1496 1497 1498 1498 1498 1497 1497 1498 1501 1502 1506 1508 1510 1511 1514 1517 1518 1518 1518 1518 1519 1519 1520 1520 1520 1520 1518 1517 1515 1513 1510 1508 1506
1484 1487 1485 1491 1486 1483 1477 1478 1462 1470 1481 1485 1489 1490 1492 1493 1496 1499 1499 1499 1499 1498 1498 1499 1500 1503 1505 1506 1506 1507 1510 1513 1515 1516 1517 1517 1516 1517 1517 1516 1515 1514 1513 1513 1512 1509 1507 1502 1501
1491 1486 1494 1494 1493 1491 1473 1491 1466 1465 1477 1483 1486 1490 1492 1495 1497 1500 1501 1501 1501 1501 1501 1502 1503 1504 1506 1507 1508 1509 1511 1512 1513 1514 1515 1513 1513 1513 1513 1513 1512 1510 1509 1506 1505 1504 1501 1498 1494
1494 1495 1494 1492 1491 1487 1477 1478 1462 1464 1470 1473 1485 1488 1492 1495 1497 1499 1501 1503 1504 1505 1505 1504 1504 1504 1505 1505 1507 1509 1509 1510 1511 1513 1511 1510 1511 1510 1510 1509 1508 1505 1504 1501 1498 1495 1493 1492 1489
1497 1495 1487 1483 1482 1489 1466 1477 1467 1465 1473 1473 1478 1488 1492 1495 1498 1500 1504 1506 1506 1507 1507 1507 1506 1506 1506 1506 1506 1506 1507 1507 1509 1509 1508 1509 1509 1508 1508 1506 1503 1500 1497 1494 1491 1488 1486 1483 1481
1495 1493 1491 1486 1480 1480 1471 1482 1472 1466 1472 1480 1481 1482 1490 1496 1500 1502 1503 1504 1507 1508 1509 1509 1509 1508 1507 1506 1506 1505 1505 1505 1505 1504 1506 1504 1504 1504 1503 1500 1497 1495 1491 1488 1484 1481 1477 1476 1473
1497 1500 1501 1513 1497 1480 1466 1480 1461 1470 1478 1484 1487 1488 1488 1494 1497 1499 1501 1504 1506 1506 1507 1509 1509 1509 1508 1506 1505 1503 1502 1502 1503 1502 1501 1499 1498 1498 1497 1494 1492 1489 1485 1481 1478 1475 1472 1470 1467
1498 1497 1495 1505 1491 1490 1472 1462 1452 1461 1475 1484 1489 1493 1495 1497 1500 1500 1502 1503 1504 1505 1506 1507 1506 1506 1505 1504 1501 1499 1497 1496 1496 1495 1494 1495 1494 1494 1492 1488 1484 1481 1478 1475 1472 1470 1467 1465 1462
1503 1501 1508 1496 1514 1509 1481 1479 1472 1472 1480 1488 1493 1497 1501 1504 1504 1505 1507 1506 1507 1505 1504 1502 1501 1500 1501 1500 1499 1497 1495 1493 1492 1491 1491 1490 1490 1487 1484 1482 1478 1476 1473 1471 1468 1466 1463 1460 1457
1500 1498 1498 1500 1506 1511 1508 1490 1472 1481 1483 1487 1492 1493 1494 1498 1500 1503 1504 1506 1504 1501 1501 1497 1497 1495 1494 1494 1494 1493 1492 1491 1489 1487 1485 1484 1484 1482 1479 1477 1473 1470 1469 1467 1464 1461 1457 1454 1452
1508 1505 1502 1513 1517 1506 1505 1496 1478 1479 1486 1489 1490 1492 1495 1499 1499 1499 1501 1500 1498 1497 1495 1492 1492 1489 1489 1488 1488 1487 1485 1484 1484 1483 1480 1477 1477 1477 1474 1471 1468 1466 1464 1462 1459 1455 1453 1450 1446